Tracking 19242 objects as of 16-Aug-2018
HD Live streaming from Space Station
objects crossing your sky now

IRIDIUM 56

Track IRIDIUM 56 now!
10-day predictions
IRIDIUM 56 is classified as:


NORAD ID: 25170
Int'l Code: 1998-010B
Perigee: 783.1 km
Apogee: 786.5 km
Inclination: 86.4 °
Period: 100.4 minutes
Semi major axis: 7155 km
RCS: 4.367 m2 (large)
Launch date: February 18, 1998
Source: United States (US)
Launch site: AIR FORCE WESTERN TEST RANGE (AFWTR)
aabbcc
Your satellite tracking list
Your tracking list is empty




NASA's NSSDC Master Catalog

Two Line Element Set (TLE):
1 25170U 98010B   18227.38808116  .00000123  00000-0  37023-4 0  9993
2 25170  86.4022 173.2270 0002401  85.2786 274.8684 14.34220588 72560
Source of the keplerian elements: AFSPC